Regional Weather Roundup
Issued by NWS Charleston, SC

Home | Current Version | Previous Version | Text Only | Print | Product List | Glossary On
Versions: 1 2 3 4 5 6 7 8 9 10 11 12 13 14 15 16 17 18 19 20 21 22 23 24 25 26 27 28 29 30 31 32 33 34 35 36 37 38 39 40 41 42 43 44 45 46 47 48 49 50
000
ASUS42 KCHS 300110
RWRCHS
REGIONAL WEATHER ROUNDUP
NATIONAL WEATHER SERVICE CHARLESTON SC
900 PM EDT TUE JUL 29 2014

NOTE: "FAIR" INDICATES FEW OR NO CLOUDS BELOW 12,000 FEET WITH NO
SIGNIFICANT WEATHER AND/OR OBSTRUCTIONS TO VISIBILITY.

NOT ALL STATIONS ARE QUALITY CONTROLLED BY THE NATIONAL
WEATHER SERVICE. USE DATA WITH CAUTION...ESPECIALLY
DEWPOINT OBSERVATIONS.

SCZ027-030-031-034>040-042>050-300200-
...SOUTH CAROLINA...

CITY           SKY/WX    TMP DP  RH WIND       PRES   REMARKS
N CHARLESTON   PTCLDY    83  68  60 E3        29.93R
WATERFRONT PRK   N/A     79 N/A N/A NE14G25     N/A
FORT JOHNSON   NOT AVBL
MOUNT PLEASANT FAIR      77  73  88 CALM      29.93R
JOHNS ISLAND   CLEAR     79  73  83 CALM      29.93R
PINOPOLIS        N/A     86  63  45 N6        29.83F
MONCKS CORNER    N/A     77  70  78 CALM      29.93R
SUMMERVILLE    FAIR      75  72  88 CALM      29.94R
BEAUFORT MCAS  PTCLDY    80  69  69 CALM      29.93R
BEAUFORT ARPT  FAIR      81  73  78 CALM      29.92R
HILTON HEAD IS CLEAR     77  73  88 CALM      29.94R
GEORGETOWN     NOT AVBL
WALTERBORO       N/A     77  70  78 CALM      29.94R
ORANGEBURG     CLEAR     76  65  68 CALM      29.94R
BARNWELL       FAIR      79  64  61 CALM      29.94R
AIKEN          CLOUDY    81  63  54 NE5       29.99R
MANNING        MOCLDY    77  72  83 CALM      29.94R
KINGSTREE      NOT AVBL
COLUMBIA       PTCLDY    84  56  38 NE5       29.94R
SUMTER         CLEAR     76  63  65 NE5       29.93R
FLORENCE       PTCLDY    78  62  57 N5        29.94R
MYRTLE BEACH   PTCLDY    79  70  73 SW6       29.93
N MYRTLE BEACH PTCLDY    77  71  82 CALM      29.93R

$$

GAZ063-065-086>088-099>101-113>116-118-119-134-136>141-150-300200-
...GEORGIA...

CITY           SKY/WX    TMP DP  RH WIND       PRES   REMARKS
SAVANNAH ARPT  PTCLDY    81  61  50 N3        29.93R
HUNTER AAF     CLEAR     81  73  77 SE3       29.92R
FORT STEWART   PTCLDY    78  68  71 CALM      29.92R
STATESBORO     NOT AVBL
SYLVANIA       CLEAR     76  73  92 CALM      29.94R
CLAXTON        MOCLDY    79  73  83 CALM      29.93R
THOMSON        CLEAR     76  68  77 CALM      30.00R
AUGUSTA-BUSH   MOCLDY    78  63  59 W5        29.93R
AUGUSTA-DANIEL PTCLDY    83  59  44 VRB3      29.95R
SWAINSBORO     FAIR      79  64  61 CALM      29.96R
VIDALIA          N/A     81  59  47 NW3       29.95R
ALMA           CLEAR     80  59  48 NW3       29.95R
WAYCROSS       MOCLDY    85  64  47 NW6       29.94R
JESUP          FAIR      84  64  51 N3        29.93R
BRUNSWICK      PTCLDY    81  72  74 CALM      29.93R
SAINT SIMONS   PTCLDY    83  72  69 E8        29.92R

$$

SCZ027-028-034-036>038-045-046-048>050-GAZ119-141-300200-
...LAKE AND SUPPLEMENTAL COASTAL OBSERVATIONS...

STATION/POSITION TIME  TEMP    WIND        PRES    WAVE   SWELL
                       AIR SEA DIR/SP/G            HT/PER HT/PER/DIR
                 (UTC) (F)     (DEG/KT/KT) (MB)    (FT/S) (FT/S/D)
UPR LAKE MARION  NOT AVBL
WINYAH BAY       0000   81     150/  3     1013.0R
LAKE MURRAY      0000   81      CALM  /  2 1012.9R
ACE BASIN NERRS  0000   84        CALM     1013.0S
FORT PULASKI     0100   82     130/  1/  2 1013.6R
SAPELO ISLAND    0000   83      90/  3     1013.0S

$$

ANZ835-935-AMZ111-154-330-350-352-354-374-450-454-472-300200-
...C-MAN AND BUOY OBSERVATIONS...

STATION/POSITION TIME  TEMP    WIND        PRES    WAVE   SWELL
                       AIR SEA DIR/SP/G            HT/PER HT/PER/DIR
                 (UTC) (F)     (DEG/KT/KT) (MB)    (FT/S) (FT/S/D)
FOLLY BEACH CMAN 0000   81     150/  5/  6 1013.3R
BUOY 41004       0100   82 84   40/  6/  8 1012.5R   2/ 5   2/ 5
BUOY 41008       0100   83 86   90/ 10/ 12 1013.1R   2/ 5   2/ 60/ 5
5E ST. MARYS GA  0100      85                N/A     2/ 8
FRYING PAN BUOY  NOT AVBL
BUOY 41025       0100          VRB 16/ 19  1013.7R   4/ 7   2/140/ 8
CAPE LOOKOUT NC  0000   78      60/ 14/ 16 1013.1R
BUOY 41002       0026   81 81  220/ 17/ 21 1013.9R   6/ 7   2/150/ 8
BUOY 41010       0100   83 84  220/ 14/ 16 1013.9R   4/ 5   2/130/ 9
BUOY 41012       NOT AVBL
ST AUGUSTINE FL  0100   84     210/  5/  7 1013.3R
CAPERS NEARSHORE 0000   81     110/  4/  6   N/A
FRIPP NEARSHORE  NOT AVBL


$$


USA.gov is the U.S. government's official web portal to all federal, state and local government web resources and services.